EW9037 Weather Reports


Display with metric or nautical units.
time (UTC)temp
F
wind
direction
speed
MPH
gust
MPH
rain 1hr
in
rain 24hr
in
rain mn
in
humidity
%
barometer
mb
20180524054350 64 101 0.0 0.0 0.00 0.00 0.00 88 1019.9
20180524052847 65 106 0.0 1.0 0.00 0.00 0.00 88 1020.2
20180524051349 65 68 0.0 1.0 0.00 0.00 0.00 87 1020.1
20180524045846 65 70 0.0 2.0 0.00 0.00 0.00 88 1020.2
20180524044339 64 74 0.0 1.0 0.00 0.00 0.00 90 1020.0
20180524042840 63 69 0.0 0.0 0.00 0.00 0.00 90 1020.0
20180524041338 62 69 0.0 0.0 0.00 0.00 0.00 90 1019.9
20180524035836 63 118 0.0 0.0 0.00 0.00 0.00 90 1020.0
20180524034334 63 119 0.0 0.0 0.00 0.00 0.00 90 1020.1
20180524032837 64 118 0.0 0.0 0.00 0.00 0.00 90 1020.0
20180524031333 65 119 0.0 0.0 0.00 0.00 0.00 89 1019.9
20180524025833 65 119 0.0 0.0 0.00 0.00 0.00 88 1019.8
20180524024331 67 119 0.0 0.0 0.00 0.00 0.00 86 1019.7
20180524022831 67 119 0.0 0.0 0.00 0.00 0.00 85 1019.5
20180524021331 68 118 0.0 0.0 0.00 0.00 0.00 84 1019.3
20180524015832 68 118 0.0 1.0 0.00 0.00 0.00 83 1019.2
20180524014329 69 49 0.0 0.0 0.00 0.00 0.00 80 1019.0
20180524012828 70 49 0.0 0.0 0.00 0.00 0.00 78 1018.9
20180524011357 72 49 0.0 0.0 0.00 0.00 0.00 77 1018.7
20180524005854 73 49 0.0 0.0 0.00 0.00 0.00 73 1018.5
20180524004354 75 49 0.0 0.0 0.00 0.00 0.00 70 1018.3
20180524002857 77 49 0.0 1.0 0.00 0.00 0.00 63 1018.1
20180524001350 79 46 0.0 2.0 0.00 0.00 0.00 60 1018.0
20180523235853 79 54 0.0 4.0 0.00 0.00 0.00 60 1017.9
20180523234348 80 56 1.0 5.0 0.00 0.00 0.00 59 1017.8
20180523232847 80 65 1.0 4.0 0.00 0.00 0.00 60 1017.7
20180523231344 80 51 1.0 7.0 0.00 0.00 0.00 58 1017.7
20180523225846 82 85 2.0 5.0 0.00 0.00 0.00 58 1017.7
20180523224345 82 53 3.0 6.0 0.00 0.00 0.00 56 1017.6
20180523222846 83 19 0.0 4.0 0.00 0.00 0.00 55 1017.7
20180523221342 83 41 6.0 10.0 0.00 0.00 0.00 52 1017.7
20180523215844 83 71 6.0 9.0 0.00 0.00 0.00 53 1017.8
20180523214340 83 59 5.0 10.0 0.00 0.00 0.00 52 1017.8
20180523212841 83 39 1.0 12.0 0.00 0.00 0.00 53 1017.9
20180523211339 84 63 1.0 6.0 0.00 0.00 0.00 51 1017.8
20180523205840 83 58 4.0 7.0 0.00 0.00 0.00 53 1017.9
20180523204338 83 56 4.0 9.0 0.00 0.00 0.00 56 1018.1
20180523202837 83 47 0.0 6.0 0.00 0.00 0.00 55 1018.1
20180523201337 83 31 5.0 8.0 0.00 0.00 0.00 56 1018.3
20180523195836 83 79 3.0 9.0 0.00 0.00 0.00 53 1018.5
20180523194335 84 61 1.0 5.0 0.00 0.00 0.00 53 1018.6
20180523192834 85 79 0.0 5.0 0.00 0.00 0.00 52 1018.6
20180523191333 83 286 0.0 6.0 0.00 0.00 0.00 54 1018.7
20180523185829 83 288 2.0 11.0 0.00 0.00 0.00 57 1018.7
20180523184330 83 13 0.0 3.0 0.00 0.00 0.00 57 1019.0
20180523182829 82 49 3.0 8.0 0.00 0.00 0.00 57 1019.1
20180523181327 83 49 0.0 5.0 0.00 0.00 0.00 56 1019.2
20180523175827 83 312 1.0 5.0 0.00 0.00 0.00 55 1019.2
20180523174323 82 39 0.0 5.0 0.00 0.00 0.00 61 1019.4
20180523172822 81 11 0.0 7.0 0.00 0.00 0.00 58 1019.5
20180523171322 82 281 3.0 8.0 0.00 0.00 0.00 58 1019.5
20180523165819 82 72 1.0 7.0 0.00 0.00 0.00 60 1019.7
20180523164316 80 330 0.0 6.0 0.00 0.00 0.00 66 1019.7
20180523162818 80 276 0.0 4.0 0.00 0.00 0.00 64 1019.7
20180523161313 79 60 1.0 6.0 0.00 0.00 0.00 66 1019.8
20180523155812 79 224 0.0 3.0 0.00 0.00 0.00 65 1019.8
20180523154310 78 46 0.0 4.0 0.00 0.00 0.00 65 1019.7
20180523152810 77 259 0.0 2.0 0.00 0.00 0.00 67 1019.7
20180523151305 76 43 0.0 4.0 0.00 0.00 0.00 69 1019.8
20180523145805 76 63 1.0 4.0 0.00 0.17 0.00 70 1019.7
20180523144303 75 44 1.0 6.0 0.00 0.17 0.00 70 1019.6
20180523142800 74 55 3.0 6.0 0.00 0.17 0.00 72 1019.6
20180523141255 74 47 0.0 6.0 0.00 0.17 0.00 73 1019.5
20180523135759 73 51 0.0 4.0 0.00 0.30 0.00 76 1019.6
20180523134251 73 29 1.0 5.0 0.00 0.30 0.00 78 1019.5
20180523132748 72 47 0.0 1.0 0.00 0.30 0.00 80 1019.5
20180523131247 71 58 0.0 3.0 0.00 0.30 0.00 82 1019.4
20180523125742 70 69 0.0 1.0 0.00 0.30 0.00 85 1019.3
20180523124238 69 43 0.0 1.0 0.00 0.30 0.00 86 1019.2
20180523122739 69 56 0.0 1.0 0.00 0.30 0.00 88 1019.1
20180523121236 68 39 0.0 1.0 0.00 0.30 0.00 87 1019.1
20180523115739 68 6 0.0 0.0 0.00 0.30 0.00 90 1019.0
20180523114233 65 55 0.0 0.0 0.00 0.30 0.00 91 1019.0
20180523112732 64 55 0.0 0.0 0.00 0.30 0.00 90 1018.9
20180523111234 63 55 0.0 0.0 0.00 0.30 0.00 90 1018.6
20180523105729 62 54 0.0 0.0 0.00 0.30 0.00 90 1018.3
20180523104224 63 54 0.0 0.0 0.00 0.30 0.00 90 1018.2
20180523102723 63 54 0.0 0.0 0.00 0.30 0.00 90 1018.0
20180523101223 63 54 0.0 0.0 0.00 0.30 0.00 90 1017.8
20180523095719 64 54 0.0 0.0 0.00 0.33 0.00 91 1017.7
20180523094220 64 41 0.0 0.0 0.00 0.33 0.00 90 1017.6
20180523092714 65 43 0.0 0.0 0.00 0.33 0.00 90 1017.5
20180523091211 65 71 0.0 1.0 0.00 0.33 0.00 89 1017.4
20180523085716 65 29 0.0 1.0 0.00 0.33 0.00 87 1017.2
20180523084212 66 41 0.0 0.0 0.00 0.33 0.00 85 1017.1
20180523082707 66 60 0.0 1.0 0.00 0.33 0.00 85 1016.9
20180523081206 65 122 0.0 0.0 0.00 0.33 0.00 85 1016.7
20180523075709 65 122 0.0 0.0 0.00 0.33 0.00 86 1016.5
20180523074202 66 122 0.0 0.0 0.00 0.33 0.00 86 1016.4
20180523072701 66 122 0.0 0.0 0.00 0.33 0.00 85 1016.3
20180523071202 66 122 0.0 0.0 0.00 0.33 0.00 85 1016.3
20180523065704 66 218 0.0 0.0 0.00 0.33 0.00 85 1016.4
20180523064158 66 218 0.0 0.0 0.00 0.33 0.00 86 1016.4
20180523062658 67 218 0.0 0.0 0.00 0.33 0.00 86 1016.3
20180523061155 67 218 0.0 0.0 0.00 0.33 0.00 85 1016.3
20180523055654 68 217 0.0 0.0 0.00 0.33 0.00 86 1016.5